Fayetteville, NC

5:33 AM EDT on September 28, 2016 (GMT -0400)
Fayetteville Regional-Grannis

Weather History for KFAY - March, 2013

Change the Weather History Date:

Friday, March 15, 2013

  Actual Average Record
Temperature  
Mean Temperature 47 °F 54 °F  
Max Temperature 65 °F 66 °F 84 °F (1990)
Min Temperature 28 °F 42 °F 15 °F (1981)
Degree Days  
Heating Degree Days 18 11  
Month to date heating degree days 262 200  
Since 1 July heating degree days 2358 2425  
Cooling Degree Days 0 0  
Month to date cooling degree days 0 0  
Year to date cooling degree days 5 4  
Moisture  
Dew Point 26 °F    
Average Humidity 54    
Maximum Humidity 85    
Minimum Humidity 22    
Precipitation  
Precipitation 0.00 in 0.12 in 1.97 in (1964)
Month to date precipitation 0.58 1.58  
Year to date precipitation 6.22 7.64  
Sea Level Pressure  
Sea Level Pressure 30.07 in    
Wind  
Wind Speed 8 mph (SW)    
Max Wind Speed 16 mph    
Max Gust Speed 24 mph    
Visibility 10 miles    
Events      
T = Trace of Precipitation, MM = Missing Value Source: NWS Daily Summary

Daily Weather History Graph

Daily Weather History Graph

Search for Another Location

Airport or City:

Trip Planner

Search our weather history database for the weather conditions in past years. The results will help you decide how hot, cold, wet, or windy it might be!

Date:

Astronomy

Mar. 15, 2013 Rise Set
Actual Time 7:25 AM EDT 7:23 PM EDT
Civil Twilight 7:00 AM EDT 7:48 PM EDT
Nautical Twilight 6:31 AM EDT 8:17 PM EDT
Astronomical Twilight 6:01 AM EDT 8:47 PM EDT
Moon 9:25 AM EDT (3/15) 11:24 PM EDT (3/15)
Length of Visible Light 12h 47m
Length of Day
11h 57m
Waxing Crescent, 15% of the Moon is Illuminated
Mar 15
Waxing Crescent
Mar 19
First Quarter
Mar 27
Full
Apr 3
Last Quarter
Apr 10
New

Hourly Weather History & Observations

Time (EDT) Temp. Windchill Dew Point Humidity Pressure Visibility Wind Dir Wind Speed Gust Speed Precip Events Conditions
12:53 AM 37.0 °F 34.5 °F 26.1 °F 65% 30.17 in 10.0 mi West 3.5 mph - N/A   Clear
1:53 AM 39.0 °F 34.8 °F 23.0 °F 53% 30.17 in 10.0 mi WNW 5.8 mph - N/A   Clear
2:53 AM 35.1 °F 31.0 °F 24.1 °F 64% 30.17 in 10.0 mi West 4.6 mph - N/A   Clear
3:53 AM 32.0 °F - 25.0 °F 75% 30.15 in 10.0 mi Calm Calm - N/A   Clear
5:53 AM 30.9 °F 27.5 °F 25.0 °F 79% 30.17 in 10.0 mi West 3.5 mph - N/A   Clear
6:53 AM 30.0 °F 26.5 °F 24.1 °F 79% 30.18 in 10.0 mi WSW 3.5 mph - N/A   Clear
8:53 AM 37.9 °F 35.5 °F 27.0 °F 65% 30.19 in 10.0 mi WSW 3.5 mph - N/A   Clear
9:53 AM 46.9 °F - 21.9 °F 37% 30.19 in 10.0 mi Calm Calm - N/A   Clear
10:53 AM 50.0 °F - 18.0 °F 28% 30.17 in 10.0 mi Variable 3.5 mph - N/A   Clear
11:53 AM 54.0 °F - 17.1 °F 23% 30.14 in 10.0 mi WSW 8.1 mph - N/A   Clear
12:53 PM 57.0 °F - 19.9 °F 24% 30.11 in 10.0 mi SSW 15.0 mph - N/A   Clear
1:53 PM 60.1 °F - 21.9 °F 23% 30.07 in 10.0 mi West 15.0 mph 21.9 mph N/A   Clear
2:53 PM 61.0 °F - 23.0 °F 23% 30.04 in 10.0 mi SW 10.4 mph 21.9 mph N/A   Clear
3:53 PM 62.1 °F - 25.0 °F 24% 30.00 in 10.0 mi SW 10.4 mph - N/A   Clear
4:53 PM 64.0 °F - 28.0 °F 26% 29.97 in 10.0 mi WSW 16.1 mph 24.2 mph N/A   Clear
5:53 PM 64.0 °F - 28.9 °F 27% 29.95 in 10.0 mi SW 16.1 mph 21.9 mph N/A   Clear
6:53 PM 62.1 °F - 30.9 °F 31% 29.95 in 10.0 mi SSW 9.2 mph - N/A   Clear
7:53 PM 57.0 °F - 32.0 °F 39% 29.95 in 10.0 mi SSW 8.1 mph - N/A   Clear
8:53 PM 55.9 °F - 33.1 °F 42% 29.94 in 10.0 mi SSW 9.2 mph - N/A   Clear
9:53 PM 55.9 °F - 33.1 °F 42% 29.94 in 10.0 mi SSW 9.2 mph - N/A   Clear
10:53 PM 54.0 °F - 34.0 °F 47% 29.94 in 10.0 mi SSW 10.4 mph - N/A   Clear
11:53 PM 53.1 °F - 36.0 °F 52% 29.93 in 10.0 mi SSW 10.4 mph - N/A   Clear